Time,TemperatureF,DewpointF,PressureIn,WindDirection,WindDirectionDegrees,WindSpeedMPH,WindSpeedGustMPH,Humidity,HourlyPrecipIn,Conditions,Clouds,dailyrainin,SolarRadiationWatts/m^2,SoftwareType,DateUTC
2013-05-14 00:00:00,48.3,36.0,29.95,SE,131,2.0,5.0,62,0.00,,,0.00,0,weatherlink.com 1.10,2013-05-14 05:00:00,
2013-05-14 00:15:00,48.5,35.0,29.94,SE,142,3.0,4.0,61,0.00,,,0.00,0,weatherlink.com 1.10,2013-05-14 05:15:00,
2013-05-14 00:30:00,48.5,36.0,29.93,SE,136,0.0,4.0,62,0.00,,,0.00,0,weatherlink.com 1.10,2013-05-14 05:30:00,
2013-05-14 00:45:00,48.7,36.0,29.92,SSE,158,2.0,4.0,62,0.00,,,0.00,0,weatherlink.com 1.10,2013-05-14 05:45:00,
2013-05-14 01:01:00,49.0,36.0,29.91,SSE,155,1.0,4.0,61,0.00,,,0.00,0,weatherlink.com 1.10,2013-05-14 06:01:00,
2013-05-14 01:16:00,49.1,36.0,29.90,SE,145,3.0,4.0,61,0.00,,,0.00,0,weatherlink.com 1.10,2013-05-14 06:16:00,
2013-05-14 01:31:00,49.0,36.0,29.89,SE,145,1.0,3.0,62,0.00,,,0.00,0,weatherlink.com 1.10,2013-05-14 06:31:00,
2013-05-14 01:46:00,49.1,36.0,29.87,SSE,147,2.0,5.0,62,0.00,,,0.00,0,weatherlink.com 1.10,2013-05-14 06:46:00,
2013-05-14 02:01:00,49.0,37.0,29.87,SSE,150,0.0,3.0,63,0.00,,,0.00,0,weatherlink.com 1.10,2013-05-14 07:01:00,
2013-05-14 02:16:00,49.5,38.0,29.86,SE,132,2.0,4.0,64,0.00,,,0.00,0,weatherlink.com 1.10,2013-05-14 07:16:00,
2013-05-14 02:31:00,50.2,38.0,29.85,SSE,156,1.0,6.0,64,0.00,,,0.00,0,weatherlink.com 1.10,2013-05-14 07:31:00,
2013-05-14 02:46:00,50.6,38.0,29.84,SSE,165,2.0,4.0,63,0.00,,,0.00,0,weatherlink.com 1.10,2013-05-14 07:46:00,
2013-05-14 03:01:00,50.5,39.0,29.82,SSE,150,2.0,6.0,64,0.00,,,0.00,0,weatherlink.com 1.10,2013-05-14 08:01:00,
2013-05-14 03:16:00,50.7,39.0,29.82,SSE,165,2.0,3.0,64,0.00,,,0.00,0,weatherlink.com 1.10,2013-05-14 08:16:00,
2013-05-14 03:31:00,50.8,39.0,29.81,SSE,161,1.0,3.0,65,0.00,,,0.00,0,weatherlink.com 1.10,2013-05-14 08:31:00,
2013-05-14 03:46:00,50.9,40.0,29.80,SSE,164,1.0,4.0,66,0.00,,,0.00,0,weatherlink.com 1.10,2013-05-14 08:46:00,
2013-05-14 04:01:00,51.0,40.0,29.80,SE,142,0.0,3.0,67,0.00,,,0.00,0,weatherlink.com 1.10,2013-05-14 09:01:00,
2013-05-14 04:16:00,51.3,41.0,29.79,SSE,157,0.0,3.0,67,0.00,,,0.00,0,weatherlink.com 1.10,2013-05-14 09:16:00,
2013-05-14 04:31:00,50.9,41.0,29.78,South,169,1.0,2.0,69,0.00,,,0.00,0,weatherlink.com 1.10,2013-05-14 09:31:00,
2013-05-14 04:46:00,50.6,41.0,29.78,SE,142,1.0,2.0,71,0.00,,,0.00,0,weatherlink.com 1.10,2013-05-14 09:46:00,
2013-05-14 05:01:00,50.4,42.0,29.78,SE,142,0.0,1.0,72,0.00,,,0.00,0,weatherlink.com 1.10,2013-05-14 10:01:00,
2013-05-14 05:16:00,50.6,41.0,29.77,SSE,158,1.0,2.0,71,0.00,,,0.00,0,weatherlink.com 1.10,2013-05-14 10:16:00,
2013-05-14 05:31:00,51.0,42.0,29.77,SSE,161,0.0,2.0,71,0.00,,,0.00,0,weatherlink.com 1.10,2013-05-14 10:31:00,
2013-05-14 05:46:00,51.3,42.0,29.77,SSE,161,1.0,1.0,71,0.00,,,0.00,9,weatherlink.com 1.10,2013-05-14 10:46:00,
2013-05-14 06:01:00,51.7,43.0,29.77,SSE,161,1.0,1.0,71,0.00,,,0.00,19,weatherlink.com 1.10,2013-05-14 11:01:00,
2013-05-14 06:16:00,52.3,43.0,29.77,SSE,167,0.0,3.0,71,0.00,,,0.00,32,weatherlink.com 1.10,2013-05-14 11:16:00,
2013-05-14 06:31:00,53.1,44.0,29.77,SSW,192,0.0,3.0,70,0.00,,,0.00,58,weatherlink.com 1.10,2013-05-14 11:31:00,
2013-05-14 06:46:00,54.0,44.0,29.76,South,186,2.0,3.0,70,0.00,,,0.00,100,weatherlink.com 1.10,2013-05-14 11:46:00,
2013-05-14 07:02:00,55.0,45.0,29.76,South,175,3.0,3.0,69,0.00,,,0.00,151,weatherlink.com 1.10,2013-05-14 12:02:00,
2013-05-14 07:17:00,55.8,46.0,29.76,SSW,199,1.0,4.0,70,0.00,,,0.00,195,weatherlink.com 1.10,2013-05-14 12:17:00,
2013-05-14 07:32:00,56.6,46.0,29.75,South,185,1.0,5.0,69,0.00,,,0.00,243,weatherlink.com 1.10,2013-05-14 12:32:00,
2013-05-14 07:47:00,57.2,47.0,29.75,SSW,206,2.0,5.0,70,0.00,,,0.00,290,weatherlink.com 1.10,2013-05-14 12:47:00,
2013-05-14 08:02:00,57.8,48.0,29.75,SSW,207,4.0,6.0,71,0.00,,,0.00,336,weatherlink.com 1.10,2013-05-14 13:02:00,
2013-05-14 08:17:00,58.7,49.0,29.75,SSW,213,4.0,6.0,71,0.00,,,0.00,383,weatherlink.com 1.10,2013-05-14 13:17:00,
2013-05-14 08:32:00,59.8,50.0,29.75,South,181,3.0,7.0,70,0.00,,,0.00,432,weatherlink.com 1.10,2013-05-14 13:32:00,
2013-05-14 08:47:00,60.9,51.0,29.75,SSW,209,3.0,6.0,70,0.00,,,0.00,478,weatherlink.com 1.10,2013-05-14 13:47:00,
2013-05-14 09:02:00,62.2,51.0,29.75,SSW,212,4.0,12.0,67,0.00,,,0.00,522,weatherlink.com 1.10,2013-05-14 14:02:00,
2013-05-14 09:17:00,63.4,53.0,29.73,SW,229,1.0,5.0,69,0.00,,,0.00,570,weatherlink.com 1.10,2013-05-14 14:17:00,
2013-05-14 09:32:00,64.4,54.0,29.73,SW,219,2.0,9.0,68,0.00,,,0.00,612,weatherlink.com 1.10,2013-05-14 14:32:00,
2013-05-14 09:47:00,65.5,53.0,29.73,SW,228,3.0,6.0,64,0.00,,,0.00,652,weatherlink.com 1.10,2013-05-14 14:47:00,
2013-05-14 10:02:00,66.7,53.0,29.74,WSW,238,6.0,9.0,62,0.00,,,0.00,693,weatherlink.com 1.10,2013-05-14 15:02:00,
2013-05-14 10:18:00,67.8,54.0,29.75,WSW,246,4.0,10.0,62,0.00,,,0.00,726,weatherlink.com 1.10,2013-05-14 15:18:00,
2013-05-14 10:33:00,69.7,54.0,29.75,WNW,300,5.0,11.0,58,0.00,,,0.00,761,weatherlink.com 1.10,2013-05-14 15:33:00,
2013-05-14 10:48:00,70.5,55.0,29.76,WNW,294,4.0,10.0,58,0.00,,,0.00,789,weatherlink.com 1.10,2013-05-14 15:48:00,
2013-05-14 11:03:00,71.0,54.0,29.76,NNW,328,2.0,8.0,56,0.00,,,0.00,821,weatherlink.com 1.10,2013-05-14 16:03:00,
2013-05-14 11:18:00,72.0,55.0,29.76,WSW,252,6.0,6.0,56,0.00,,,0.00,842,weatherlink.com 1.10,2013-05-14 16:18:00,
2013-05-14 11:33:00,72.8,55.0,29.76,West,269,1.0,10.0,53,0.00,,,0.00,863,weatherlink.com 1.10,2013-05-14 16:33:00,
2013-05-14 11:48:00,73.5,55.0,29.77,WSW,255,5.0,9.0,52,0.00,,,0.00,886,weatherlink.com 1.10,2013-05-14 16:48:00,
2013-05-14 12:03:00,74.2,55.0,29.77,WSW,246,5.0,7.0,51,0.00,,,0.00,900,weatherlink.com 1.10,2013-05-14 17:03:00,
2013-05-14 12:18:00,75.4,56.0,29.76,WNW,297,1.0,4.0,52,0.00,,,0.00,902,weatherlink.com 1.10,2013-05-14 17:18:00,
2013-05-14 12:33:00,76.1,59.0,29.76,SSW,213,2.0,3.0,55,0.00,,,0.00,911,weatherlink.com 1.10,2013-05-14 17:33:00,
2013-05-14 12:48:00,77.1,56.0,29.77,SSE,159,2.0,3.0,48,0.00,,,0.00,919,weatherlink.com 1.10,2013-05-14 17:48:00,
2013-05-14 13:03:00,77.6,56.0,29.76,West,263,4.0,8.0,48,0.00,,,0.00,926,weatherlink.com 1.10,2013-05-14 18:03:00,
2013-05-14 13:18:00,78.3,55.0,29.77,WSW,257,0.0,4.0,44,0.00,,,0.00,916,weatherlink.com 1.10,2013-05-14 18:18:00,
2013-05-14 13:33:00,78.7,57.0,29.78,WNW,282,1.0,6.0,48,0.00,,,0.00,911,weatherlink.com 1.10,2013-05-14 18:33:00,
2013-05-14 13:48:00,79.3,56.0,29.79,WSW,251,4.0,8.0,45,0.00,,,0.00,907,weatherlink.com 1.10,2013-05-14 18:48:00,
2013-05-14 14:03:00,79.8,55.0,29.79,NE,44,1.0,6.0,43,0.00,,,0.00,919,weatherlink.com 1.10,2013-05-14 19:03:00,
2013-05-14 14:18:00,79.3,58.0,29.78,NE,53,1.0,7.0,48,0.00,,,0.00,350,weatherlink.com 1.10,2013-05-14 19:18:00,
2013-05-14 14:33:00,77.8,58.0,29.77,North,5,3.0,8.0,50,0.00,,,0.00,206,weatherlink.com 1.10,2013-05-14 19:33:00,
2013-05-14 14:48:00,76.9,59.0,29.77,NE,55,1.0,6.0,54,0.00,,,0.00,188,weatherlink.com 1.10,2013-05-14 19:48:00,
2013-05-14 15:03:00,76.6,54.0,29.75,ESE,103,2.0,3.0,46,0.00,,,0.00,58,weatherlink.com 1.10,2013-05-14 20:03:00,
2013-05-14 15:18:00,75.6,56.0,29.67,SSE,147,1.0,4.0,51,0.00,,,0.00,149,weatherlink.com 1.10,2013-05-14 20:18:00,
2013-05-14 15:33:00,75.5,58.0,29.70,SE,124,1.0,3.0,54,0.00,,,0.00,171,weatherlink.com 1.10,2013-05-14 20:33:00,
2013-05-14 15:48:00,75.7,56.0,29.70,ESE,123,0.0,2.0,51,0.00,,,0.00,244,weatherlink.com 1.10,2013-05-14 20:48:00,
2013-05-14 16:03:00,76.8,56.0,29.69,SE,143,3.0,4.0,48,0.00,,,0.00,823,weatherlink.com 1.10,2013-05-14 21:03:00,
2013-05-14 16:19:00,78.6,57.0,29.68,SE,137,3.0,5.0,47,0.00,,,0.00,659,weatherlink.com 1.10,2013-05-14 21:19:00,
2013-05-14 16:48:00,79.5,56.0,29.66,SE,144,2.0,5.0,44,0.00,,,0.00,592,weatherlink.com 1.10,2013-05-14 21:48:00,
2013-05-14 17:03:00,79.8,55.0,29.67,SSE,149,2.0,6.0,43,0.00,,,0.00,531,weatherlink.com 1.10,2013-05-14 22:03:00,
2013-05-14 17:18:00,80.0,56.0,29.66,SE,146,1.0,6.0,44,0.00,,,0.00,397,weatherlink.com 1.10,2013-05-14 22:18:00,
2013-05-14 17:34:00,80.5,56.0,29.66,SE,134,2.0,4.0,43,0.00,,,0.00,475,weatherlink.com 1.10,2013-05-14 22:34:00,
2013-05-14 17:49:00,80.1,57.0,29.64,SSE,150,4.0,4.0,45,0.00,,,0.00,394,weatherlink.com 1.10,2013-05-14 22:49:00,
2013-05-14 18:04:00,79.7,56.0,29.62,SE,142,4.0,7.0,45,0.00,,,0.00,373,weatherlink.com 1.10,2013-05-14 23:04:00,
2013-05-14 18:19:00,79.3,55.0,29.61,SSE,151,2.0,5.0,44,0.00,,,0.00,227,weatherlink.com 1.10,2013-05-14 23:19:00,
2013-05-14 18:34:00,77.8,56.0,29.61,SE,142,1.0,5.0,47,0.00,,,0.00,60,weatherlink.com 1.10,2013-05-14 23:34:00,
2013-05-14 18:49:00,76.6,56.0,29.59,SE,138,6.0,6.0,49,0.00,,,0.00,141,weatherlink.com 1.10,2013-05-14 23:49:00,
2013-05-14 19:04:00,76.0,58.0,29.60,East,82,5.0,7.0,53,0.00,,,0.00,54,weatherlink.com 1.10,2013-05-15 00:04:00,
2013-05-14 19:19:00,74.8,56.0,29.60,SE,135,0.0,3.0,53,0.00,,,0.00,39,weatherlink.com 1.10,2013-05-15 00:19:00,
2013-05-14 19:34:00,74.0,58.0,29.59,SE,136,1.0,3.0,57,0.00,,,0.00,56,weatherlink.com 1.10,2013-05-15 00:34:00,
2013-05-14 19:49:00,72.2,57.0,29.59,SE,134,2.0,3.0,60,0.00,,,0.00,33,weatherlink.com 1.10,2013-05-15 00:49:00,
2013-05-14 20:04:00,71.9,56.0,29.58,SE,140,1.0,5.0,58,0.00,,,0.00,11,weatherlink.com 1.10,2013-05-15 01:04:00,
2013-05-14 20:19:00,70.9,56.0,29.58,SSE,165,3.0,4.0,60,0.00,,,0.00,12,weatherlink.com 1.10,2013-05-15 01:19:00,
2013-05-14 20:34:00,70.6,56.0,29.56,SE,144,2.0,5.0,61,0.00,,,0.00,0,weatherlink.com 1.10,2013-05-15 01:34:00,
2013-05-14 20:49:00,69.9,57.0,29.55,SE,139,2.0,3.0,63,0.00,,,0.00,0,weatherlink.com 1.10,2013-05-15 01:49:00,
2013-05-14 21:04:00,69.5,57.0,29.56,SE,139,1.0,2.0,65,0.00,,,0.00,0,weatherlink.com 1.10,2013-05-15 02:04:00,
2013-05-14 21:19:00,69.5,56.0,29.56,South,171,1.0,2.0,63,0.00,,,0.00,0,weatherlink.com 1.10,2013-05-15 02:19:00,
2013-05-14 21:34:00,73.2,55.0,29.55,South,175,2.0,4.0,53,0.00,,,0.00,0,weatherlink.com 1.10,2013-05-15 02:34:00,
2013-05-14 21:49:00,76.2,54.0,29.55,SSE,149,5.0,5.0,47,0.00,,,0.00,0,weatherlink.com 1.10,2013-05-15 02:49:00,
2013-05-14 22:04:00,77.2,54.0,29.54,SSE,160,4.0,5.0,45,0.00,,,0.00,0,weatherlink.com 1.10,2013-05-15 03:04:00,
2013-05-14 22:19:00,77.8,55.0,29.54,South,179,6.0,7.0,46,0.00,,,0.00,0,weatherlink.com 1.10,2013-05-15 03:19:00,
2013-05-14 22:34:00,77.2,55.0,29.54,South,180,1.0,6.0,47,0.00,,,0.00,0,weatherlink.com 1.10,2013-05-15 03:34:00,
2013-05-14 22:49:00,76.0,56.0,29.54,SSE,165,3.0,5.0,50,0.00,,,0.00,0,weatherlink.com 1.10,2013-05-15 03:49:00,
2013-05-14 23:04:00,75.2,57.0,29.54,South,182,2.0,5.0,53,0.00,,,0.00,0,weatherlink.com 1.10,2013-05-15 04:04:00,
2013-05-14 23:19:00,73.8,57.0,29.54,South,177,2.0,3.0,57,0.00,,,0.00,0,weatherlink.com 1.10,2013-05-15 04:19:00,
2013-05-14 23:34:00,73.1,58.0,29.54,SSW,207,2.0,4.0,59,0.00,,,0.00,0,weatherlink.com 1.10,2013-05-15 04:34:00,
2013-05-14 23:49:00,71.6,59.0,29.54,SSW,196,3.0,4.0,65,0.00,,,0.00,0,weatherlink.com 1.10,2013-05-15 04:49:00,